| time (UTC) | temp C | wind direction | speed KPH | gust KPH | rain 1hr cm | rain 24hr cm | rain mn cm | humidity % | barometer mb |
| 20260507105529 | 14 | 5 | 8.0 | 12.9 | 0.00 | 0.00 | 0.00 | 61 | 1016.7 |
| 20260507105036 | 14 | 360 | 6.4 | 14.5 | 0.00 | 0.00 | 0.00 | 63 | 1016.8 |
| 20260507104525 | 14 | 328 | 8.0 | 14.5 | 0.00 | 0.00 | 0.00 | 61 | 1016.8 |
| 20260507104054 | 14 | 5 | 6.4 | 16.1 | 0.00 | 0.00 | 0.00 | 62 | 1016.8 |
| 20260507103538 | 13 | 13 | 8.0 | 16.1 | 0.00 | 0.00 | 0.00 | 63 | 1016.8 |
| 20260507103027 | 13 | 327 | 8.0 | 16.1 | 0.00 | 0.00 | 0.00 | 65 | 1016.8 |
| 20260507102535 | 13 | 313 | 8.0 | 16.1 | 0.00 | 0.00 | 0.00 | 64 | 1016.8 |
| 20260507102042 | 13 | 5 | 8.0 | 14.5 | 0.00 | 0.00 | 0.00 | 62 | 1016.8 |
| 20260507101530 | 13 | 11 | 6.4 | 16.1 | 0.00 | 0.00 | 0.00 | 64 | 1016.8 |
| 20260507101033 | 13 | 326 | 8.0 | 19.3 | 0.00 | 0.00 | 0.00 | 64 | 1016.8 |
| 20260507100543 | 13 | 318 | 11.3 | 19.3 | 0.00 | 0.00 | 0.00 | 65 | 1016.8 |
| 20260507100043 | 13 | 29 | 9.7 | 16.1 | 0.00 | 0.00 | 0.00 | 63 | 1016.7 |
| 20260507095533 | 13 | 342 | 6.4 | 17.7 | 0.00 | 0.00 | 0.00 | 64 | 1016.8 |
| 20260507095039 | 13 | 321 | 9.7 | 19.3 | 0.00 | 0.00 | 0.00 | 63 | 1016.7 |
| 20260507094544 | 13 | 351 | 9.7 | 19.3 | 0.00 | 0.00 | 0.00 | 63 | 1016.6 |
| 20260507094032 | 13 | 262 | 8.0 | 16.1 | 0.00 | 0.00 | 0.00 | 63 | 1016.6 |
| 20260507093601 | 13 | 298 | 8.0 | 20.9 | 0.00 | 0.00 | 0.00 | 64 | 1016.5 |
| 20260507093028 | 13 | 333 | 9.7 | 20.9 | 0.00 | 0.00 | 0.00 | 62 | 1016.5 |
| 20260507092534 | 13 | 319 | 9.7 | 17.7 | 0.00 | 0.00 | 0.00 | 63 | 1016.5 |
| 20260507092041 | 13 | 286 | 6.4 | 14.5 | 0.00 | 0.00 | 0.00 | 64 | 1016.5 |
| 20260507091529 | 13 | 348 | 6.4 | 14.5 | 0.00 | 0.00 | 0.00 | 64 | 1016.4 |
| 20260507091055 | 13 | 327 | 6.4 | 14.5 | 0.00 | 0.00 | 0.00 | 65 | 1016.3 |
| 20260507090559 | 13 | 323 | 9.7 | 14.5 | 0.00 | 0.00 | 0.00 | 64 | 1016.4 |
| 20260507090039 | 13 | 275 | 6.4 | 14.5 | 0.00 | 0.00 | 0.00 | 66 | 1016.4 |
| 20260507085529 | 13 | 326 | 6.4 | 16.1 | 0.00 | 0.00 | 0.00 | 65 | 1016.3 |
| 20260507085037 | 13 | 302 | 6.4 | 16.1 | 0.00 | 0.00 | 0.00 | 65 | 1016.3 |
| 20260507084525 | 13 | 351 | 6.4 | 11.3 | 0.00 | 0.00 | 0.00 | 64 | 1016.3 |
| 20260507084030 | 13 | 323 | 3.2 | 9.7 | 0.00 | 0.00 | 0.00 | 65 | 1016.3 |
| 20260507083604 | 13 | 325 | 4.8 | 12.9 | 0.00 | 0.00 | 0.00 | 64 | 1016.3 |
| 20260507083031 | 13 | 5 | 3.2 | 12.9 | 0.00 | 0.00 | 0.00 | 63 | 1016.3 |
| 20260507082600 | 13 | 18 | 1.6 | 8.0 | 0.00 | 0.00 | 0.00 | 61 | 1016.3 |
| 20260507082027 | 13 | 18 | 3.2 | 8.0 | 0.00 | 0.00 | 0.00 | 61 | 1016.3 |
| 20260507081531 | 13 | 15 | 3.2 | 8.0 | 0.00 | 0.00 | 0.00 | 63 | 1016.3 |
| 20260507081100 | 13 | 16 | 3.2 | 9.7 | 0.00 | 0.00 | 0.00 | 61 | 1016.3 |
| 20260507080528 | 13 | 75 | 3.2 | 9.7 | 0.00 | 0.00 | 0.00 | 62 | 1016.2 |
| 20260507080031 | 13 | 283 | 4.8 | 9.7 | 0.00 | 0.00 | 0.00 | 63 | 1016.2 |
| 20260507075532 | 13 | 38 | 1.6 | 9.7 | 0.00 | 0.00 | 0.00 | 64 | 1016.2 |
| 20260507075041 | 12 | 68 | 3.2 | 6.4 | 0.00 | 0.00 | 0.00 | 66 | 1016.1 |
| 20260507074531 | 12 | 50 | 3.2 | 9.7 | 0.00 | 0.00 | 0.00 | 65 | 1016.1 |
| 20260507074039 | 12 | 56 | 3.2 | 9.7 | 0.00 | 0.00 | 0.00 | 66 | 1016.1 |
| 20260507073548 | 12 | 36 | 4.8 | 9.7 | 0.00 | 0.00 | 0.00 | 69 | 1016.0 |
| 20260507073030 | 12 | 28 | 3.2 | 9.7 | 0.00 | 0.00 | 0.00 | 69 | 1016.1 |
| 20260507072538 | 12 | 12 | 3.2 | 9.7 | 0.00 | 0.00 | 0.00 | 69 | 1016.1 |
| 20260507072027 | 12 | 71 | 3.2 | 9.7 | 0.00 | 0.00 | 0.00 | 70 | 1016.1 |
| 20260507071535 | 12 | 51 | 1.6 | 6.4 | 0.00 | 0.00 | 0.00 | 72 | 1016.1 |
| 20260507071037 | 12 | 338 | 1.6 | 6.4 | 0.00 | 0.00 | 0.00 | 72 | 1016.0 |
| 20260507070525 | 11 | 9 | 1.6 | 8.0 | 0.00 | 0.00 | 0.00 | 73 | 1016.0 |
| 20260507070028 | 11 | 30 | 3.2 | 9.7 | 0.00 | 0.00 | 0.00 | 73 | 1016.0 |
| 20260507065537 | 11 | 9 | 3.2 | 12.9 | 0.00 | 0.00 | 0.00 | 73 | 1016.0 |
| 20260507065025 | 11 | 360 | 4.8 | 9.7 | 0.00 | 0.00 | 0.00 | 74 | 1016.0 |
| 20260507064531 | 11 | 17 | 3.2 | 9.7 | 0.00 | 0.00 | 0.00 | 76 | 1016.0 |
| 20260507064041 | 11 | 343 | 3.2 | 9.7 | 0.00 | 0.00 | 0.00 | 76 | 1015.9 |
| 20260507063528 | 11 | 355 | 1.6 | 6.4 | 0.00 | 0.00 | 0.00 | 77 | 1016.0 |
| 20260507063057 | 11 | 79 | 3.2 | 8.0 | 0.00 | 0.00 | 0.00 | 77 | 1016.0 |
| 20260507062524 | 10 | 30 | 3.2 | 8.0 | 0.00 | 0.00 | 0.00 | 78 | 1015.9 |
| 20260507062029 | 10 | 44 | 3.2 | 8.0 | 0.00 | 0.00 | 0.00 | 78 | 1015.9 |
| 20260507061537 | 10 | 59 | 3.2 | 8.0 | 0.00 | 0.00 | 0.00 | 78 | 1016.0 |
| 20260507061044 | 10 | 85 | 1.6 | 6.4 | 0.00 | 0.00 | 0.00 | 78 | 1015.9 |
| 20260507060532 | 10 | 101 | 1.6 | 6.4 | 0.00 | 0.00 | 0.00 | 79 | 1015.9 |
| 20260507060035 | 10 | 47 | 1.6 | 8.0 | 0.00 | 0.00 | 0.00 | 80 | 1016.0 |
| 20260507055540 | 10 | 59 | 3.2 | 8.0 | 0.00 | 0.00 | 0.00 | 80 | 1015.9 |
| 20260507055029 | 9 | 34 | 1.6 | 3.2 | 0.00 | 0.00 | 0.00 | 81 | 1015.9 |
| 20260507054538 | 9 | 34 | 0.0 | 4.8 | 0.00 | 0.00 | 0.00 | 82 | 1015.8 |
| 20260507054047 | 8 | 34 | 1.6 | 4.8 | 0.00 | 0.00 | 0.00 | 82 | 1015.7 |
| 20260507053530 | 8 | 34 | 0.0 | 3.2 | 0.00 | 0.00 | 0.00 | 82 | 1015.7 |
| 20260507053039 | 8 | 34 | 0.0 | 3.2 | 0.00 | 0.00 | 0.00 | 82 | 1015.6 |
| 20260507052528 | 8 | 34 | 0.0 | 4.8 | 0.00 | 0.00 | 0.00 | 83 | 1015.6 |
| 20260507052037 | 8 | 36 | 1.6 | 4.8 | 0.00 | 0.00 | 0.00 | 84 | 1015.6 |
| 20260507051526 | 8 | 24 | 0.0 | 3.2 | 0.00 | 0.00 | 0.00 | 84 | 1015.6 |
| 20260507051030 | 8 | 24 | 1.6 | 3.2 | 0.00 | 0.00 | 0.00 | 85 | 1015.5 |
| 20260507050539 | 8 | 24 | 0.0 | 3.2 | 0.00 | 0.00 | 0.00 | 87 | 1015.5 |
| 20260507050040 | 7 | 22 | 0.0 | 4.8 | 0.00 | 0.00 | 0.00 | 89 | 1015.4 |
| 20260507045528 | 7 | 22 | 0.0 | 3.2 | 0.00 | 0.00 | 0.00 | 88 | 1015.3 |
| 20260507045036 | 7 | 22 | 0.0 | 3.2 | 0.00 | 0.00 | 0.00 | 88 | 1015.3 |
| 20260507044541 | 7 | 22 | 0.0 | 1.6 | 0.00 | 0.00 | 0.00 | 88 | 1015.2 |
| 20260507044029 | 6 | 22 | 0.0 | 3.2 | 0.00 | 0.00 | 0.00 | 88 | 1015.2 |
| 20260507043538 | 6 | 22 | 1.6 | 3.2 | 0.00 | 0.00 | 0.00 | 88 | 1015.1 |
| 20260507043027 | 6 | 22 | 0.0 | 3.2 | 0.00 | 0.00 | 0.00 | 88 | 1015.1 |
| 20260507042556 | 6 | 22 | 0.0 | 1.6 | 0.00 | 0.00 | 0.00 | 88 | 1015.1 |
| 20260507042039 | 7 | 22 | 0.0 | 1.6 | 0.00 | 0.00 | 0.00 | 88 | 1015.1 |
| 20260507041528 | 7 | 22 | 0.0 | 1.6 | 0.00 | 0.00 | 0.00 | 88 | 1015.0 |
| 20260507041100 | 7 | 22 | 0.0 | 3.2 | 0.00 | 0.00 | 0.00 | 87 | 1015.0 |
| 20260507040528 | 7 | 22 | 0.0 | 3.2 | 0.00 | 0.00 | 0.00 | 87 | 1014.9 |
| 20260507040027 | 7 | 22 | 0.0 | 4.8 | 0.00 | 0.00 | 0.00 | 87 | 1014.9 |
| 20260507035536 | 7 | 22 | 0.0 | 4.8 | 0.00 | 0.00 | 0.00 | 88 | 1014.8 |
| 20260507035025 | 7 | 22 | 0.0 | 3.2 | 0.00 | 0.00 | 0.00 | 88 | 1014.9 |
| 20260507034534 | 7 | 22 | 1.6 | 4.8 | 0.00 | 0.00 | 0.00 | 87 | 1014.9 |
| 20260507034041 | 7 | 30 | 1.6 | 4.8 | 0.00 | 0.00 | 0.00 | 88 | 1014.8 |
| 20260507033526 | 7 | 26 | 1.6 | 4.8 | 0.00 | 0.00 | 0.00 | 87 | 1014.8 |
| 20260507033035 | 7 | 32 | 1.6 | 4.8 | 0.00 | 0.00 | 0.00 | 88 | 1014.8 |
| 20260507032524 | 7 | 32 | 1.6 | 4.8 | 0.00 | 0.00 | 0.00 | 87 | 1014.8 |
| 20260507032033 | 7 | 45 | 1.6 | 3.2 | 0.00 | 0.00 | 0.00 | 87 | 1014.8 |
| 20260507031542 | 7 | 45 | 1.6 | 3.2 | 0.00 | 0.00 | 0.00 | 87 | 1014.7 |
| 20260507031027 | 7 | 45 | 0.0 | 4.8 | 0.00 | 0.00 | 0.00 | 87 | 1014.7 |
| 20260507030536 | 7 | 45 | 1.6 | 4.8 | 0.00 | 0.00 | 0.00 | 87 | 1014.7 |
| 20260507030056 | 7 | 45 | 0.0 | 4.8 | 0.00 | 0.00 | 0.00 | 87 | 1014.6 |
| 20260507025543 | 7 | 45 | 1.6 | 4.8 | 0.00 | 0.00 | 0.00 | 87 | 1014.6 |
| 20260507025031 | 7 | 45 | 1.6 | 4.8 | 0.00 | 0.00 | 0.00 | 86 | 1014.6 |
| 20260507024536 | 7 | 45 | 1.6 | 4.8 | 0.00 | 0.00 | 0.00 | 86 | 1014.6 |
| 20260507024024 | 7 | 45 | 1.6 | 6.4 | 0.00 | 0.00 | 0.00 | 86 | 1014.5 |
| 20260507023533 | 7 | 45 | 1.6 | 6.4 | 0.00 | 0.00 | 0.00 | 86 | 1014.5 |
| 20260507023041 | 7 | 32 | 3.2 | 4.8 | 0.00 | 0.00 | 0.00 | 86 | 1014.5 |
| 20260507022530 | 7 | 32 | 1.6 | 4.8 | 0.00 | 0.00 | 0.00 | 86 | 1014.5 |
| 20260507022034 | 7 | 32 | 1.6 | 8.0 | 0.00 | 0.00 | 0.00 | 86 | 1014.5 |
| 20260507021543 | 7 | 342 | 3.2 | 8.0 | 0.00 | 0.00 | 0.00 | 85 | 1014.4 |
| 20260507021032 | 7 | 29 | 1.6 | 8.0 | 0.00 | 0.00 | 0.00 | 85 | 1014.3 |
| 20260507020542 | 7 | 38 | 3.2 | 8.0 | 0.00 | 0.00 | 0.00 | 86 | 1014.3 |
| 20260507020024 | 7 | 5 | 1.6 | 3.2 | 0.00 | 0.00 | 0.00 | 86 | 1014.3 |
| 20260507015550 | 8 | 5 | 1.6 | 6.4 | 0.00 | 0.00 | 0.00 | 85 | 1014.3 |
| 20260507015035 | 8 | 5 | 3.2 | 6.4 | 0.00 | 0.00 | 0.00 | 85 | 1014.3 |
| 20260507014524 | 8 | 19 | 1.6 | 6.4 | 0.00 | 0.00 | 0.00 | 85 | 1014.2 |
| 20260507014032 | 8 | 19 | 3.2 | 6.4 | 0.00 | 0.00 | 0.00 | 85 | 1014.2 |
| 20260507013557 | 8 | 25 | 1.6 | 6.4 | 0.00 | 0.00 | 0.00 | 85 | 1014.2 |
| 20260507013024 | 8 | 10 | 3.2 | 8.0 | 0.00 | 0.00 | 0.00 | 85 | 1014.1 |
| 20260507012533 | 8 | 327 | 1.6 | 8.0 | 0.00 | 0.00 | 0.00 | 85 | 1014.1 |
| 20260507012041 | 8 | 32 | 3.2 | 8.0 | 0.00 | 0.00 | 0.00 | 85 | 1014.1 |
| 20260507011529 | 8 | 9 | 3.2 | 8.0 | 0.00 | 0.00 | 0.00 | 85 | 1014.1 |
| 20260507011034 | 8 | 36 | 3.2 | 8.0 | 0.00 | 0.00 | 0.00 | 85 | 1014.1 |
| 20260507010542 | 8 | 340 | 3.2 | 8.0 | 0.00 | 0.00 | 0.00 | 85 | 1014.1 |
| 20260507010042 | 8 | 21 | 3.2 | 8.0 | 0.00 | 0.00 | 0.00 | 85 | 1014.1 |
| 20260507005530 | 8 | 5 | 4.8 | 8.0 | 0.00 | 0.00 | 0.00 | 85 | 1014.1 |
| 20260507005034 | 8 | 5 | 3.2 | 8.0 | 0.00 | 0.00 | 0.00 | 85 | 1014.1 |
| 20260507004524 | 8 | 61 | 3.2 | 9.7 | 0.00 | 0.00 | 0.00 | 85 | 1014.1 |
| 20260507004031 | 8 | 14 | 4.8 | 9.7 | 0.00 | 0.00 | 0.00 | 85 | 1014.0 |
| 20260507003539 | 8 | 336 | 1.6 | 8.0 | 0.00 | 0.00 | 0.00 | 85 | 1014.0 |
| 20260507003026 | 8 | 13 | 1.6 | 8.0 | 0.00 | 0.00 | 0.00 | 85 | 1014.1 |
| 20260507002528 | 8 | 13 | 3.2 | 8.0 | 0.00 | 0.00 | 0.00 | 85 | 1014.0 |
| 20260507002100 | 8 | 15 | 3.2 | 8.0 | 0.00 | 0.00 | 0.00 | 85 | 1014.0 |
| 20260507001547 | 8 | 350 | 1.6 | 9.7 | 0.00 | 0.00 | 0.00 | 85 | 1013.9 |
| 20260507001032 | 8 | 355 | 3.2 | 9.7 | 0.00 | 0.00 | 0.00 | 85 | 1013.9 |
| 20260507000537 | 8 | 25 | 3.2 | 9.7 | 0.00 | 0.00 | 0.00 | 85 | 1013.9 |
| 20260507000056 | 8 | 16 | 3.2 | 9.7 | 0.00 | 0.00 | 0.00 | 85 | 1013.9 |
| 20260506235542 | 8 | 14 | 3.2 | 8.0 | 0.00 | 0.00 | 0.00 | 85 | 1013.8 |
| 20260506235033 | 9 | 355 | 1.6 | 14.5 | 0.00 | 0.00 | 0.00 | 85 | 1013.9 |
| 20260506234540 | 9 | 360 | 4.8 | 14.5 | 0.00 | 0.00 | 0.00 | 84 | 1013.9 |
| 20260506234043 | 9 | 355 | 3.2 | 12.9 | 0.00 | 0.00 | 0.00 | 84 | 1013.9 |
| 20260506233531 | 9 | 30 | 3.2 | 12.9 | 0.00 | 0.00 | 0.00 | 83 | 1013.8 |
| 20260506233040 | 9 | 22 | 3.2 | 12.9 | 0.00 | 0.00 | 0.00 | 83 | 1013.8 |
| 20260506232527 | 9 | 23 | 4.8 | 12.9 | 0.00 | 0.00 | 0.00 | 83 | 1013.7 |
| 20260506232032 | 9 | 17 | 6.4 | 16.1 | 0.00 | 0.00 | 0.00 | 82 | 1013.7 |
| 20260506231555 | 9 | 41 | 4.8 | 16.1 | 0.00 | 0.00 | 0.00 | 82 | 1013.7 |
| 20260506231041 | 9 | 30 | 3.2 | 16.1 | 0.00 | 0.00 | 0.00 | 81 | 1013.7 |
| 20260506230527 | 10 | 34 | 6.4 | 16.1 | 0.00 | 0.00 | 0.00 | 81 | 1013.7 |
| 20260506230025 | 10 | 17 | 4.8 | 14.5 | 0.00 | 0.00 | 0.00 | 80 | 1013.7 |
| 20260506225528 | 10 | 30 | 3.2 | 12.9 | 0.00 | 0.00 | 0.00 | 79 | 1013.7 |
| 20260506225055 | 10 | 28 | 4.8 | 12.9 | 0.00 | 0.00 | 0.00 | 79 | 1013.6 |
| 20260506224523 | 10 | 11 | 4.8 | 12.9 | 0.00 | 0.00 | 0.00 | 79 | 1013.7 |
| 20260506224031 | 10 | 324 | 3.2 | 12.9 | 0.00 | 0.00 | 0.00 | 78 | 1013.7 |
| 20260506223536 | 10 | 9 | 3.2 | 16.1 | 0.00 | 0.00 | 0.00 | 78 | 1013.6 |
| 20260506223043 | 10 | 14 | 6.4 | 16.1 | 0.00 | 0.00 | 0.00 | 77 | 1013.5 |
| 20260506222532 | 10 | 15 | 4.8 | 9.7 | 0.00 | 0.00 | 0.00 | 77 | 1013.5 |
| 20260506222039 | 10 | 331 | 3.2 | 8.0 | 0.00 | 0.00 | 0.00 | 77 | 1013.4 |
| 20260506221525 | 10 | 351 | 3.2 | 8.0 | 0.00 | 0.00 | 0.00 | 76 | 1013.4 |
| 20260506221029 | 10 | 19 | 1.6 | 9.7 | 0.00 | 0.00 | 0.00 | 75 | 1013.4 |
| 20260506220536 | 10 | 11 | 3.2 | 9.7 | 0.00 | 0.00 | 0.00 | 75 | 1013.4 |
| 20260506220038 | 10 | 13 | 3.2 | 9.7 | 0.00 | 0.00 | 0.00 | 75 | 1013.4 |
| 20260506215524 | 10 | 5 | 3.2 | 12.9 | 0.00 | 0.00 | 0.00 | 74 | 1013.3 |
| 20260506215052 | 10 | 13 | 4.8 | 12.9 | 0.00 | 0.00 | 0.00 | 74 | 1013.3 |
| 20260506214556 | 10 | 11 | 3.2 | 9.7 | 0.00 | 0.00 | 0.00 | 74 | 1013.3 |
| 20260506214023 | 10 | 322 | 3.2 | 16.1 | 0.00 | 0.00 | 0.00 | 73 | 1013.3 |
| 20260506213531 | 10 | 341 | 6.4 | 16.1 | 0.00 | 0.00 | 0.00 | 73 | 1013.2 |
| 20260506213037 | 10 | 318 | 4.8 | 8.0 | 0.00 | 0.00 | 0.00 | 72 | 1013.2 |
| 20260506212541 | 11 | 347 | 3.2 | 9.7 | 0.00 | 0.00 | 0.00 | 72 | 1013.1 |
| 20260506212029 | 11 | 5 | 4.8 | 9.7 | 0.00 | 0.00 | 0.00 | 71 | 1013.1 |
| 20260506211538 | 11 | 355 | 3.2 | 9.7 | 0.00 | 0.00 | 0.00 | 71 | 1013.0 |
| 20260506211027 | 11 | 9 | 3.2 | 9.7 | 0.00 | 0.00 | 0.00 | 71 | 1012.9 |
| 20260506210541 | 11 | 5 | 1.6 | 11.3 | 0.00 | 0.00 | 0.00 | 70 | 1013.0 |
| 20260506210023 | 11 | 58 | 4.8 | 12.9 | 0.00 | 0.00 | 0.00 | 70 | 1012.9 |
| 20260506205532 | 11 | 325 | 3.2 | 9.7 | 0.00 | 0.00 | 0.00 | 70 | 1012.9 |
| 20260506205040 | 11 | 5 | 4.8 | 9.7 | 0.00 | 0.00 | 0.00 | 69 | 1012.9 |
| 20260506204529 | 11 | 40 | 3.2 | 9.7 | 0.00 | 0.00 | 0.00 | 68 | 1012.9 |
| 20260506204037 | 11 | 15 | 3.2 | 12.9 | 0.00 | 0.00 | 0.00 | 68 | 1012.9 |
| 20260506203542 | 12 | 40 | 4.8 | 12.9 | 0.00 | 0.00 | 0.00 | 67 | 1012.8 |
| 20260506203031 | 12 | 360 | 4.8 | 16.1 | 0.00 | 0.00 | 0.00 | 67 | 1012.8 |
| 20260506202540 | 12 | 15 | 4.8 | 16.1 | 0.00 | 0.00 | 0.00 | 67 | 1012.7 |
| 20260506202027 | 12 | 335 | 4.8 | 16.1 | 0.00 | 0.00 | 0.00 | 67 | 1012.6 |
| 20260506201536 | 12 | 341 | 4.8 | 14.5 | 0.00 | 0.00 | 0.00 | 67 | 1012.6 |
| 20260506201040 | 12 | 341 | 4.8 | 14.5 | 0.00 | 0.00 | 0.00 | 69 | 1012.6 |
| 20260506200529 | 12 | 34 | 3.2 | 9.7 | 0.00 | 0.00 | 0.00 | 70 | 1012.5 |
| 20260506200028 | 12 | 9 | 4.8 | 9.7 | 0.00 | 0.00 | 0.00 | 70 | 1012.5 |
| 20260506195536 | 12 | 17 | 3.2 | 12.9 | 0.00 | 0.00 | 0.00 | 70 | 1012.4 |
| 20260506195025 | 12 | 355 | 3.2 | 12.9 | 0.00 | 0.00 | 0.00 | 70 | 1012.3 |
| 20260506194549 | 12 | 344 | 4.8 | 12.9 | 0.00 | 0.00 | 0.00 | 72 | 1012.2 |
| 20260506194037 | 12 | 17 | 4.8 | 12.9 | 0.00 | 0.00 | 0.00 | 73 | 1012.2 |
| 20260506193527 | 12 | 32 | 3.2 | 12.9 | 0.00 | 0.00 | 0.00 | 73 | 1012.2 |
| 20260506193036 | 12 | 355 | 6.4 | 14.5 | 0.00 | 0.00 | 0.00 | 72 | 1012.2 |
| 20260506192525 | 12 | 350 | 6.4 | 14.5 | 0.00 | 0.00 | 0.00 | 73 | 1012.1 |
| 20260506192027 | 12 | 346 | 8.0 | 16.1 | 0.00 | 0.00 | 0.00 | 72 | 1012.0 |
| 20260506191536 | 12 | 346 | 8.0 | 16.1 | 0.00 | 0.00 | 0.00 | 72 | 1011.9 |
| 20260506191024 | 12 | 17 | 3.2 | 17.7 | 0.00 | 0.00 | 0.00 | 73 | 1011.9 |
| 20260506190533 | 12 | 298 | 6.4 | 17.7 | 0.00 | 0.00 | 0.00 | 73 | 1011.9 |
| 20260506190030 | 12 | 336 | 8.0 | 20.9 | 0.00 | 0.00 | 0.00 | 73 | 1011.8 |
| 20260506185540 | 12 | 355 | 6.4 | 20.9 | 0.00 | 0.00 | 0.00 | 73 | 1011.7 |
| 20260506185028 | 12 | 15 | 8.0 | 17.7 | 0.00 | 0.00 | 0.00 | 73 | 1011.6 |
| 20260506184558 | 12 | 19 | 6.4 | 17.7 | 0.00 | 0.00 | 0.00 | 73 | 1011.6 |
| 20260506184044 | 12 | 5 | 6.4 | 20.9 | 0.00 | 0.00 | 0.00 | 73 | 1011.5 |
| 20260506183548 | 12 | 25 | 8.0 | 20.9 | 0.00 | 0.00 | 0.00 | 74 | 1011.5 |
| 20260506183035 | 12 | 28 | 4.8 | 19.3 | 0.00 | 0.00 | 0.00 | 74 | 1011.4 |
| 20260506182524 | 12 | 23 | 6.4 | 22.5 | 0.00 | 0.00 | 0.00 | 74 | 1011.3 |
| 20260506182032 | 12 | 9 | 12.9 | 22.5 | 0.00 | 0.00 | 0.00 | 74 | 1011.2 |
| 20260506181538 | 12 | 355 | 11.3 | 19.3 | 0.00 | 0.00 | 0.00 | 74 | 1011.2 |
| 20260506181025 | 12 | 11 | 6.4 | 17.7 | 0.00 | 0.00 | 0.00 | 75 | 1011.1 |
| 20260506180535 | 12 | 351 | 9.7 | 19.3 | 0.00 | 0.00 | 0.00 | 75 | 1011.1 |
| 20260506180036 | 12 | 5 | 9.7 | 20.9 | 0.00 | 0.00 | 0.00 | 74 | 1011.1 |
| 20260506175525 | 12 | 13 | 8.0 | 20.9 | 0.00 | 0.00 | 0.00 | 74 | 1011.1 |
| 20260506175029 | 12 | 9 | 11.3 | 20.9 | 0.00 | 0.00 | 0.00 | 74 | 1011.0 |
| 20260506174538 | 12 | 9 | 11.3 | 24.1 | 0.00 | 0.00 | 0.00 | 74 | 1010.9 |
| 20260506174026 | 12 | 15 | 11.3 | 24.1 | 0.00 | 0.00 | 0.00 | 74 | 1010.8 |
| 20260506173535 | 12 | 344 | 11.3 | 22.5 | 0.00 | 0.00 | 0.00 | 75 | 1010.8 |
| 20260506173058 | 12 | 29 | 9.7 | 24.1 | 0.00 | 0.00 | 0.00 | 75 | 1010.8 |
| 20260506172527 | 12 | 16 | 9.7 | 27.4 | 0.00 | 0.00 | 0.00 | 75 | 1010.7 |
| 20260506172037 | 12 | 328 | 11.3 | 27.4 | 0.00 | 0.00 | 0.00 | 74 | 1010.7 |
| 20260506171525 | 12 | 317 | 8.0 | 22.5 | 0.00 | 0.00 | 0.00 | 75 | 1010.6 |
| 20260506171054 | 12 | 342 | 12.9 | 22.5 | 0.00 | 0.00 | 0.00 | 75 | 1010.6 |
| 20260506170538 | 12 | 333 | 14.5 | 20.9 | 0.00 | 0.00 | 0.00 | 75 | 1010.6 |
| 20260506170058 | 12 | 355 | 9.7 | 24.1 | 0.00 | 0.00 | 0.00 | 75 | 1010.5 |
| 20260506165545 | 12 | 9 | 12.9 | 24.1 | 0.00 | 0.00 | 0.00 | 75 | 1010.5 |
| 20260506165031 | 12 | 347 | 12.9 | 22.5 | 0.00 | 0.00 | 0.00 | 75 | 1010.5 |
| 20260506164534 | 12 | 5 | 9.7 | 24.1 | 0.00 | 0.00 | 0.00 | 75 | 1010.6 |
| 20260506164023 | 12 | 5 | 9.7 | 25.7 | 0.00 | 0.00 | 0.00 | 75 | 1010.5 |
| 20260506163552 | 12 | 360 | 14.5 | 25.7 | 0.00 | 0.00 | 0.00 | 75 | 1010.5 |
| 20260506163038 | 12 | 355 | 12.9 | 20.9 | 0.00 | 0.00 | 0.00 | 75 | 1010.5 |
| 20260506162527 | 12 | 24 | 11.3 | 24.1 | 0.00 | 0.00 | 0.00 | 75 | 1010.4 |
| 20260506162028 | 12 | 355 | 12.9 | 24.1 | 0.00 | 0.00 | 0.00 | 75 | 1010.5 |
| 20260506161537 | 12 | 331 | 11.3 | 22.5 | 0.00 | 0.00 | 0.00 | 75 | 1010.4 |
| 20260506161026 | 13 | 360 | 9.7 | 24.1 | 0.00 | 0.00 | 0.00 | 74 | 1010.4 |
| 20260506160536 | 13 | 338 | 9.7 | 24.1 | 0.00 | 0.00 | 0.00 | 73 | 1010.5 |
| 20260506160034 | 13 | 54 | 9.7 | 20.9 | 0.00 | 0.00 | 0.00 | 73 | 1010.4 |
| 20260506155542 | 13 | 346 | 11.3 | 27.4 | 0.00 | 0.00 | 0.00 | 73 | 1010.3 |
| 20260506155049 | 13 | 355 | 16.1 | 30.6 | 0.00 | 0.00 | 0.00 | 72 | 1010.4 |
| 20260506154537 | 13 | 22 | 8.0 | 30.6 | 0.00 | 0.00 | 0.00 | 72 | 1010.4 |
| 20260506154022 | 13 | 34 | 11.3 | 29.0 | 0.00 | 0.00 | 0.00 | 72 | 1010.4 |
| 20260506153546 | 13 | 29 | 14.5 | 32.2 | 0.00 | 0.00 | 0.00 | 72 | 1010.4 |
| 20260506153034 | 13 | 339 | 17.7 | 32.2 | 0.00 | 0.00 | 0.00 | 71 | 1010.4 |
| 20260506152522 | 13 | 12 | 19.3 | 32.2 | 0.00 | 0.00 | 0.00 | 70 | 1010.3 |
| 20260506152030 | 13 | 355 | 14.5 | 32.2 | 0.00 | 0.00 | 0.00 | 71 | 1010.3 |
| 20260506151534 | 13 | 5 | 16.1 | 33.8 | 0.00 | 0.00 | 0.00 | 71 | 1010.3 |
| 20260506151022 | 13 | 33 | 17.7 | 33.8 | 0.00 | 0.00 | 0.00 | 70 | 1010.3 |
| 20260506150532 | 13 | 360 | 11.3 | 35.4 | 0.00 | 0.00 | 0.00 | 70 | 1010.3 |
| 20260506150054 | 13 | 5 | 19.3 | 35.4 | 0.00 | 0.00 | 0.00 | 70 | 1010.2 |
| 20260506145540 | 14 | 11 | 19.3 | 32.2 | 0.00 | 0.00 | 0.00 | 68 | 1010.2 |
| 20260506145025 | 13 | 19 | 16.1 | 25.7 | 0.00 | 0.00 | 0.00 | 70 | 1010.1 |
| 20260506144534 | 13 | 303 | 12.9 | 29.0 | 0.00 | 0.00 | 0.00 | 70 | 1010.2 |
| 20260506144024 | 14 | 324 | 14.5 | 29.0 | 0.00 | 0.00 | 0.00 | 68 | 1010.2 |
| 20260506143559 | 14 | 329 | 14.5 | 30.6 | 0.00 | 0.00 | 0.00 | 68 | 1010.2 |
| 20260506143027 | 13 | 13 | 19.3 | 30.6 | 0.00 | 0.00 | 0.00 | 70 | 1010.2 |
| 20260506142532 | 14 | 12 | 12.9 | 27.4 | 0.00 | 0.00 | 0.00 | 69 | 1010.3 |
| 20260506142039 | 15 | 337 | 11.3 | 29.0 | 0.00 | 0.00 | 0.00 | 68 | 1010.3 |
| 20260506141526 | 15 | 340 | 16.1 | 29.0 | 0.00 | 0.00 | 0.00 | 69 | 1010.3 |
| 20260506141029 | 15 | 342 | 12.9 | 27.4 | 0.00 | 0.00 | 0.00 | 70 | 1010.1 |
| 20260506140534 | 15 | 15 | 14.5 | 30.6 | 0.00 | 0.00 | 0.00 | 71 | 1010.3 |
| 20260506140057 | 14 | 350 | 17.7 | 30.6 | 0.00 | 0.00 | 0.00 | 71 | 1010.3 |
| 20260506135525 | 15 | 25 | 16.1 | 30.6 | 0.00 | 0.00 | 0.00 | 71 | 1010.2 |
| 20260506135034 | 15 | 355 | 19.3 | 33.8 | 0.00 | 0.00 | 0.00 | 71 | 1010.3 |
| 20260506134543 | 15 | 11 | 16.1 | 33.8 | 0.00 | 0.00 | 0.00 | 71 | 1010.2 |
| 20260506134026 | 15 | 348 | 16.1 | 27.4 | 0.00 | 0.00 | 0.00 | 71 | 1010.2 |
| 20260506133535 | 15 | 21 | 14.5 | 25.7 | 0.00 | 0.00 | 0.00 | 72 | 1010.2 |
| 20260506133022 | 14 | 332 | 9.7 | 29.0 | 0.00 | 0.00 | 0.00 | 73 | 1010.2 |
| 20260506132531 | 13 | 14 | 19.3 | 29.0 | 0.00 | 0.00 | 0.00 | 75 | 1010.2 |
| 20260506132059 | 13 | 45 | 12.9 | 27.4 | 0.00 | 0.00 | 0.00 | 75 | 1010.2 |
| 20260506131528 | 13 | 346 | 16.1 | 27.4 | 0.00 | 0.00 | 0.00 | 74 | 1010.2 |
| 20260506131101 | 13 | 360 | 12.9 | 24.1 | 0.00 | 0.00 | 0.00 | 73 | 1010.1 |
| 20260506130530 | 14 | 296 | 11.3 | 25.7 | 0.00 | 0.00 | 0.00 | 73 | 1010.2 |
| 20260506130032 | 14 | 302 | 12.9 | 30.6 | 0.00 | 0.00 | 0.00 | 73 | 1010.1 |
| 20260506125538 | 14 | 22 | 14.5 | 30.6 | 0.00 | 0.00 | 0.00 | 73 | 1010.0 |
| 20260506125027 | 14 | 346 | 12.9 | 29.0 | 0.00 | 0.00 | 0.00 | 73 | 1010.1 |
| 20260506124556 | 14 | 14 | 14.5 | 29.0 | 0.00 | 0.00 | 0.00 | 72 | 1010.0 |
| 20260506124022 | 14 | 5 | 12.9 | 27.4 | 0.00 | 0.00 | 0.00 | 74 | 1010.0 |
| 20260506123528 | 13 | 284 | 12.9 | 27.4 | 0.00 | 0.00 | 0.00 | 75 | 1010.0 |
| 20260506123056 | 13 | 355 | 14.5 | 27.4 | 0.00 | 0.00 | 0.00 | 74 | 1009.9 |
| 20260506122525 | 13 | 5 | 16.1 | 27.4 | 0.00 | 0.00 | 0.00 | 75 | 1010.0 |
| 20260506122031 | 13 | 355 | 14.5 | 29.0 | 0.00 | 0.00 | 0.00 | 74 | 1010.0 |
| 20260506121540 | 13 | 317 | 11.3 | 29.0 | 0.00 | 0.00 | 0.00 | 74 | 1010.0 |
| 20260506121026 | 13 | 351 | 14.5 | 27.4 | 0.00 | 0.00 | 0.00 | 73 | 1010.0 |
| 20260506120555 | 13 | 333 | 16.1 | 27.4 | 0.00 | 0.00 | 0.00 | 73 | 1009.9 |
| 20260506120036 | 13 | 355 | 14.5 | 24.1 | 0.00 | 0.00 | 0.00 | 73 | 1009.9 |
| 20260506115524 | 13 | 48 | 14.5 | 24.1 | 0.00 | 0.00 | 0.00 | 73 | 1009.9 |
| 20260506115029 | 13 | 355 | 16.1 | 27.4 | 0.00 | 0.00 | 0.00 | 72 | 1009.8 |
| 20260506114538 | 13 | 360 | 16.1 | 27.4 | 0.00 | 0.00 | 0.00 | 72 | 1009.9 |
| 20260506114025 | 13 | 341 | 11.3 | 25.7 | 0.00 | 0.00 | 0.00 | 73 | 1009.9 |
| 20260506113533 | 13 | 333 | 12.9 | 25.7 | 0.00 | 0.00 | 0.00 | 73 | 1009.8 |
| 20260506113041 | 13 | 355 | 11.3 | 25.7 | 0.00 | 0.00 | 0.00 | 72 | 1009.9 |
| 20260506112526 | 14 | 355 | 14.5 | 25.7 | 0.00 | 0.00 | 0.00 | 70 | 1009.8 |
| 20260506112054 | 14 | 355 | 14.5 | 29.0 | 0.00 | 0.00 | 0.00 | 71 | 1009.9 |
| 20260506111521 | 14 | 11 | 16.1 | 29.0 | 0.00 | 0.00 | 0.00 | 72 | 1009.8 |
| 20260506111031 | 13 | 355 | 8.0 | 27.4 | 0.00 | 0.00 | 0.00 | 74 | 1009.8 |
| 20260506110540 | 13 | 300 | 17.7 | 32.2 | 0.00 | 0.00 | 0.00 | 73 | 1009.9 |
| 20260506110037 | 13 | 38 | 17.7 | 32.2 | 0.00 | 0.00 | 0.00 | 74 | 1009.8 |